Location: ??????
(38.0131°N, 23.7723°E)
Time: 17:14:35
(UTC+00:00)

SL-16 R/B - Visible Passes

Search period start: 28 May 2022 00:00
Search period end: 07 June 2022 00:00
Orbit: 842 x 846 km, 71.0° (Epoch: 27 May)

Date Brightness Start Highest point End Pass type
(mag) Time Alt. Az. Time Alt. Az. Time Alt. Az.
28 May 3.0 19:00:49 19° SSE 19:03:51 30° ESE 19:08:43 10° NE visible
28 May 3.6 20:42:39 10° SW 20:47:48 35° WNW 20:52:59 10° N visible
29 May 3.0 18:44:46 10° SSE 18:49:31 29° ESE 18:54:19 10° NE visible
29 May 3.6 20:28:14 10° SW 20:33:25 36° WNW 20:38:39 10° N visible
30 May 3.1 18:30:28 10° SSE 18:35:10 28° ESE 18:39:54 10° NE visible
30 May 3.5 20:13:49 10° SW 20:19:03 38° WNW 20:24:20 10° N visible
31 May 3.1 18:16:12 10° SSE 18:20:50 27° ESE 18:25:29 10° NE visible
31 May 3.5 19:59:24 10° SW 20:04:41 39° WNW 20:09:59 10° N visible
01 Jun 3.5 19:44:59 10° SW 19:50:18 41° WNW 19:55:39 10° N visible
02 Jun 3.4 19:30:34 10° SW 19:35:55 43° WNW 19:41:19 10° N visible
03 Jun 3.4 19:16:09 10° SW 19:21:33 44° WNW 19:26:59 10° N visible
04 Jun 3.4 19:01:45 10° SW 19:07:11 46° WNW 19:12:39 10° N visible
05 Jun 3.3 18:47:21 10° SW 18:52:48 48° WNW 18:58:18 10° NNE visible
06 Jun 3.3 18:32:57 10° SW 18:38:26 50° WNW 18:43:57 10° NNE visible
